Location: ??????
(41.3164°N, 22.6615°E)
Time: 06:19:52
(UTC+00:00)

CZ-2C R/B - Visible Passes

Search period start: 21 May 2022 00:00
Search period end: 31 May 2022 00:00
Orbit: 784 x 870 km, 98.2° (Epoch: 20 May)

Date Brightness Start Highest point End Pass type
(mag) Time Alt. Az. Time Alt. Az. Time Alt. Az.
21 May 5.6 01:41:24 10° E 01:44:28 16° ENE 01:47:34 10° NNE visible
22 May 6.0 01:24:42 10° ENE 01:26:04 11° ENE 01:27:28 10° NE visible
24 May 4.3 02:23:30 10° SE 02:28:16 38° ENE 02:33:05 10° N visible
25 May 5.0 02:05:27 10° ESE 02:09:44 27° ENE 02:14:04 10° N visible
26 May 5.5 01:47:42 10° ESE 01:51:15 19° ENE 01:54:51 10° NNE visible
27 May 5.7 01:30:27 10° E 01:32:50 13° ENE 01:35:14 10° NNE visible
30 May 4.7 02:11:59 10° SE 02:16:32 31° ENE 02:21:10 10° N visible
